Time,TemperatureF,DewpointF,PressureIn,WindDirection,WindDirectionDegrees,WindSpeedMPH,WindSpeedGustMPH,Humidity,HourlyPrecipIn,Conditions,Clouds,dailyrainin,SoftwareType,DateUTC
2013-01-17 00:01:00,15.1,1.8,30.15,NW,315,0.0,3.0,55,0.00,,,0.00,Wunderground v.1.15,2013-01-17 06:01:00,
2013-01-17 00:05:00,14.9,2.0,30.16,NW,304,3.0,3.0,56,0.00,,,0.00,Wunderground v.1.15,2013-01-17 06:05:00,
2013-01-17 00:06:00,14.9,2.0,30.16,NW,323,2.0,3.0,56,0.00,,,0.00,Wunderground v.1.15,2013-01-17 06:06:00,
2013-01-17 00:07:00,14.8,1.9,30.16,NW,323,2.0,3.0,56,0.00,,,0.00,Wunderground v.1.15,2013-01-17 06:07:00,
2013-01-17 00:08:00,14.8,1.9,30.16,WNW,288,4.0,4.0,56,0.00,,,0.00,Wunderground v.1.15,2013-01-17 06:08:00,
2013-01-17 00:11:00,14.7,1.8,30.16,NW,315,0.0,2.0,56,0.00,,,0.00,Wunderground v.1.15,2013-01-17 06:11:00,
2013-01-17 00:13:00,14.7,2.2,30.17,NNW,335,2.0,2.0,57,0.00,,,0.00,Wunderground v.1.15,2013-01-17 06:13:00,
2013-01-17 00:14:00,14.6,2.1,30.16,WNW,290,4.0,4.0,57,0.00,,,0.00,Wunderground v.1.15,2013-01-17 06:14:00,
2013-01-17 00:19:00,14.5,2.0,30.17,WNW,299,1.0,4.0,57,0.00,,,0.00,Wunderground v.1.15,2013-01-17 06:19:00,
2013-01-17 00:20:00,14.4,1.9,30.17,WNW,292,3.0,3.0,57,0.00,,,0.00,Wunderground v.1.15,2013-01-17 06:20:00,
2013-01-17 00:23:00,14.4,1.9,30.17,NNW,341,3.0,3.0,57,0.00,,,0.00,Wunderground v.1.15,2013-01-17 06:23:00,
2013-01-17 00:24:00,14.3,1.8,30.17,WNW,288,1.0,3.0,57,0.00,,,0.00,Wunderground v.1.15,2013-01-17 06:24:00,
2013-01-17 00:26:00,14.3,1.8,30.17,NW,316,4.0,4.0,57,0.00,,,0.00,Wunderground v.1.15,2013-01-17 06:26:00,
2013-01-17 00:27:00,14.2,1.7,30.17,NW,307,3.0,4.0,57,0.00,,,0.00,Wunderground v.1.15,2013-01-17 06:27:00,
2013-01-17 00:30:00,14.1,1.6,30.17,NW,305,3.0,3.0,57,0.00,,,0.00,Wunderground v.1.15,2013-01-17 06:30:00,
2013-01-17 00:32:00,14.1,1.6,30.18,NW,311,3.0,3.0,57,0.00,,,0.00,Wunderground v.1.15,2013-01-17 06:32:00,
2013-01-17 00:34:00,14.0,1.5,30.18,NNW,331,2.0,3.0,57,0.00,,,0.00,Wunderground v.1.15,2013-01-17 06:34:00,
2013-01-17 00:35:00,14.0,1.5,30.18,West,279,1.0,3.0,57,0.00,,,0.00,Wunderground v.1.15,2013-01-17 06:35:00,
2013-01-17 00:37:00,14.0,1.9,30.18,NW,318,2.0,3.0,58,0.00,,,0.00,Wunderground v.1.15,2013-01-17 06:37:00,
2013-01-17 00:41:00,13.8,1.4,30.18,NW,325,2.0,2.0,57,0.00,,,0.00,Wunderground v.1.15,2013-01-17 06:41:00,
2013-01-17 00:42:00,13.8,1.4,30.18,WNW,299,1.0,2.0,57,0.00,,,0.00,Wunderground v.1.15,2013-01-17 06:42:00,
2013-01-17 00:46:00,13.7,1.6,30.19,NW,317,0.0,3.0,58,0.00,,,0.00,Wunderground v.1.15,2013-01-17 06:46:00,
2013-01-17 00:47:00,13.7,1.6,30.18,NW,317,0.0,3.0,58,0.00,,,0.00,Wunderground v.1.15,2013-01-17 06:47:00,
2013-01-17 00:51:00,13.6,1.5,30.19,NNW,327,2.0,3.0,58,0.00,,,0.00,Wunderground v.1.15,2013-01-17 06:51:00,
2013-01-17 00:53:00,13.5,1.1,30.19,NW,320,1.0,3.0,57,0.00,,,0.00,Wunderground v.1.15,2013-01-17 06:53:00,
2013-01-17 00:54:00,13.5,1.1,30.19,NW,320,0.0,3.0,57,0.00,,,0.00,Wunderground v.1.15,2013-01-17 06:54:00,
2013-01-17 00:55:00,13.5,1.1,30.19,NW,320,2.0,3.0,57,0.00,,,0.00,Wunderground v.1.15,2013-01-17 06:55:00,
2013-01-17 00:58:00,13.4,1.0,30.19,NW,320,1.0,3.0,57,0.00,,,0.00,Wunderground v.1.15,2013-01-17 06:58:00,
2013-01-17 01:00:00,13.3,0.9,30.20,WNW,302,0.0,1.0,57,0.00,,,0.00,Wunderground v.1.15,2013-01-17 07:00:00,
2013-01-17 01:02:00,13.3,0.9,30.20,NW,319,1.0,2.0,57,0.00,,,0.00,Wunderground v.1.15,2013-01-17 07:02:00,
2013-01-17 01:05:00,13.2,0.4,30.20,WNW,282,1.0,2.0,56,0.00,,,0.00,Wunderground v.1.15,2013-01-17 07:05:00,
2013-01-17 01:08:00,13.1,-0.1,30.20,WNW,292,1.0,2.0,55,0.00,,,0.00,Wunderground v.1.15,2013-01-17 07:08:00,
2013-01-17 01:09:00,13.1,-0.1,30.20,WNW,292,2.0,2.0,55,0.00,,,0.00,Wunderground v.1.15,2013-01-17 07:09:00,
2013-01-17 01:10:00,13.1,-0.1,30.20,West,264,0.0,2.0,55,0.00,,,0.00,Wunderground v.1.15,2013-01-17 07:10:00,
2013-01-17 01:14:00,13.0,-0.2,30.21,West,281,4.0,4.0,55,0.00,,,0.00,Wunderground v.1.15,2013-01-17 07:14:00,
2013-01-17 01:15:00,12.9,-0.3,30.21,NW,313,1.0,4.0,55,0.00,,,0.00,Wunderground v.1.15,2013-01-17 07:15:00,
2013-01-17 01:16:00,12.9,-0.3,30.21,NW,313,0.0,4.0,55,0.00,,,0.00,Wunderground v.1.15,2013-01-17 07:16:00,
2013-01-17 01:20:00,12.8,-0.3,30.21,NNW,347,7.0,7.0,55,0.00,,,0.00,Wunderground v.1.15,2013-01-17 07:20:00,
2013-01-17 01:23:00,12.7,-0.4,30.21,NW,317,4.0,7.0,55,0.00,,,0.00,Wunderground v.1.15,2013-01-17 07:23:00,
2013-01-17 01:24:00,12.7,-0.4,30.21,NW,318,2.0,7.0,55,0.00,,,0.00,Wunderground v.1.15,2013-01-17 07:24:00,
2013-01-17 01:26:00,12.6,-0.5,30.21,NW,318,3.0,7.0,55,0.00,,,0.00,Wunderground v.1.15,2013-01-17 07:26:00,
2013-01-17 01:28:00,12.6,-0.5,30.21,NW,318,1.0,7.0,55,0.00,,,0.00,Wunderground v.1.15,2013-01-17 07:28:00,
2013-01-17 01:30:00,12.5,-0.6,30.21,NW,318,0.0,2.0,55,0.00,,,0.00,Wunderground v.1.15,2013-01-17 07:30:00,
2013-01-17 01:34:00,12.4,-0.3,30.22,NW,318,1.0,2.0,56,0.00,,,0.00,Wunderground v.1.15,2013-01-17 07:34:00,
2013-01-17 01:36:00,12.3,-0.4,30.22,NW,318,1.0,2.0,56,0.00,,,0.00,Wunderground v.1.15,2013-01-17 07:36:00,
2013-01-17 01:37:00,12.3,-0.4,30.22,NW,318,0.0,2.0,56,0.00,,,0.00,Wunderground v.1.15,2013-01-17 07:37:00,
2013-01-17 01:40:00,12.2,-0.5,30.22,NW,319,0.0,1.0,56,0.00,,,0.00,Wunderground v.1.15,2013-01-17 07:40:00,
2013-01-17 01:42:00,12.2,-0.5,30.22,NW,319,0.0,1.0,56,0.00,,,0.00,Wunderground v.1.15,2013-01-17 07:42:00,
2013-01-17 01:43:00,12.2,-0.5,30.22,NW,319,0.0,1.0,56,0.00,,,0.00,Wunderground v.1.15,2013-01-17 07:43:00,
2013-01-17 01:47:00,12.0,-0.3,30.22,NW,319,0.0,1.0,57,0.00,,,0.00,Wunderground v.1.15,2013-01-17 07:47:00,
2013-01-17 01:48:00,12.0,-0.3,30.22,NW,319,0.0,1.0,57,0.00,,,0.00,Wunderground v.1.15,2013-01-17 07:48:00,
2013-01-17 01:52:00,11.9,-0.4,30.22,NW,319,0.0,0.0,57,0.00,,,0.00,Wunderground v.1.15,2013-01-17 07:52:00,
2013-01-17 01:55:00,11.9,-0.4,30.22,NW,319,0.0,0.0,57,0.00,,,0.00,Wunderground v.1.15,2013-01-17 07:55:00,
2013-01-17 01:58:00,11.9,1.0,30.21,NW,319,0.0,0.0,61,0.00,,,0.00,Wunderground v.1.15,2013-01-17 07:58:00,
2013-01-17 01:59:00,11.8,0.9,30.22,NW,319,0.0,0.0,61,0.00,,,0.00,Wunderground v.1.15,2013-01-17 07:59:00,
2013-01-17 02:01:00,11.7,0.5,30.22,NW,319,1.0,1.0,60,0.00,,,0.00,Wunderground v.1.15,2013-01-17 08:01:00,
2013-01-17 02:02:00,11.7,0.5,30.22,NW,319,0.0,1.0,60,0.00,,,0.00,Wunderground v.1.15,2013-01-17 08:02:00,
2013-01-17 02:03:00,11.5,0.6,30.22,NW,319,0.0,2.0,61,0.00,,,0.00,Wunderground v.1.15,2013-01-17 08:03:00,
2013-01-17 02:04:00,11.5,0.6,30.22,NW,319,1.0,2.0,61,0.00,,,0.00,Wunderground v.1.15,2013-01-17 08:04:00,
2013-01-17 02:06:00,11.3,0.1,30.22,NW,319,0.0,2.0,60,0.00,,,0.00,Wunderground v.1.15,2013-01-17 08:06:00,
2013-01-17 02:07:00,11.2,0.0,30.22,NW,319,2.0,2.0,60,0.00,,,0.00,Wunderground v.1.15,2013-01-17 08:07:00,
2013-01-17 02:08:00,11.1,0.3,30.22,NW,319,1.0,2.0,61,0.00,,,0.00,Wunderground v.1.15,2013-01-17 08:08:00,
2013-01-17 02:09:00,11.1,-0.1,30.22,NW,319,2.0,2.0,60,0.00,,,0.00,Wunderground v.1.15,2013-01-17 08:09:00,
2013-01-17 02:11:00,11.0,-0.2,30.23,NW,319,3.0,3.0,60,0.00,,,0.00,Wunderground v.1.15,2013-01-17 08:11:00,
2013-01-17 02:12:00,11.0,-0.2,30.22,NW,319,1.0,3.0,60,0.00,,,0.00,Wunderground v.1.15,2013-01-17 08:12:00,
2013-01-17 02:14:00,11.0,-0.2,30.23,NW,319,2.0,3.0,60,0.00,,,0.00,Wunderground v.1.15,2013-01-17 08:14:00,
2013-01-17 02:15:00,11.0,-0.2,30.23,NW,319,0.0,3.0,60,0.00,,,0.00,Wunderground v.1.15,2013-01-17 08:15:00,
2013-01-17 02:16:00,11.0,-0.2,30.23,NW,319,0.0,3.0,60,0.00,,,0.00,Wunderground v.1.15,2013-01-17 08:16:00,
2013-01-17 02:17:00,11.1,-0.1,30.24,NW,319,0.0,3.0,60,0.00,,,0.00,Wunderground v.1.15,2013-01-17 08:17:00,
2013-01-17 02:19:00,11.1,-0.1,30.24,NW,319,0.0,3.0,60,0.00,,,0.00,Wunderground v.1.15,2013-01-17 08:19:00,
2013-01-17 02:20:00,11.1,0.3,30.23,NW,319,0.0,1.0,61,0.00,,,0.00,Wunderground v.1.15,2013-01-17 08:20:00,
2013-01-17 02:21:00,11.1,0.3,30.24,NW,319,0.0,1.0,61,0.00,,,0.00,Wunderground v.1.15,2013-01-17 08:21:00,
2013-01-17 02:22:00,11.1,0.6,30.24,NW,319,0.0,1.0,62,0.00,,,0.00,Wunderground v.1.15,2013-01-17 08:22:00,
2013-01-17 02:24:00,11.1,0.3,30.24,NW,319,0.0,2.0,61,0.00,,,0.00,Wunderground v.1.15,2013-01-17 08:24:00,
2013-01-17 02:26:00,11.2,0.0,30.24,NW,319,1.0,4.0,60,0.00,,,0.00,Wunderground v.1.15,2013-01-17 08:26:00,
2013-01-17 02:27:00,11.3,0.1,30.24,WNW,302,2.0,4.0,60,0.00,,,0.00,Wunderground v.1.15,2013-01-17 08:27:00,
2013-01-17 02:29:00,11.3,0.1,30.24,WNW,302,0.0,4.0,60,0.00,,,0.00,Wunderground v.1.15,2013-01-17 08:29:00,
2013-01-17 02:31:00,11.3,0.1,30.24,WNW,302,2.0,3.0,60,0.00,,,0.00,Wunderground v.1.15,2013-01-17 08:31:00,
2013-01-17 02:32:00,11.3,0.1,30.24,WNW,302,0.0,3.0,60,0.00,,,0.00,Wunderground v.1.15,2013-01-17 08:32:00,
2013-01-17 02:34:00,11.3,0.1,30.23,WNW,302,1.0,3.0,60,0.00,,,0.00,Wunderground v.1.15,2013-01-17 08:34:00,
2013-01-17 02:36:00,11.4,0.5,30.24,NW,304,3.0,3.0,61,0.00,,,0.00,Wunderground v.1.15,2013-01-17 08:36:00,
2013-01-17 02:37:00,11.4,0.5,30.23,NW,304,2.0,4.0,61,0.00,,,0.00,Wunderground v.1.15,2013-01-17 08:37:00,
2013-01-17 02:40:00,11.5,0.6,30.23,NW,304,0.0,1.0,61,0.00,,,0.00,Wunderground v.1.15,2013-01-17 08:40:00,
2013-01-17 02:41:00,11.5,0.3,30.23,WNW,294,2.0,5.0,60,0.00,,,0.00,Wunderground v.1.15,2013-01-17 08:41:00,
2013-01-17 02:42:00,11.4,0.2,30.24,WNW,294,1.0,5.0,60,0.00,,,0.00,Wunderground v.1.15,2013-01-17 08:42:00,
2013-01-17 02:45:00,11.4,0.2,30.23,WNW,294,2.0,5.0,60,0.00,,,0.00,Wunderground v.1.15,2013-01-17 08:45:00,
2013-01-17 02:46:00,11.4,0.2,30.23,WNW,294,0.0,5.0,60,0.00,,,0.00,Wunderground v.1.15,2013-01-17 08:46:00,
2013-01-17 02:48:00,11.4,0.2,30.23,WNW,294,1.0,5.0,60,0.00,,,0.00,Wunderground v.1.15,2013-01-17 08:48:00,
2013-01-17 02:50:00,11.4,-0.2,30.23,NNW,342,2.0,2.0,59,0.00,,,0.00,Wunderground v.1.15,2013-01-17 08:50:00,
2013-01-17 02:51:00,11.4,-0.2,30.23,NNW,346,2.0,2.0,59,0.00,,,0.00,Wunderground v.1.15,2013-01-17 08:51:00,
2013-01-17 02:53:00,11.4,-0.2,30.23,NNW,346,0.0,2.0,59,0.00,,,0.00,Wunderground v.1.15,2013-01-17 08:53:00,
2013-01-17 02:55:00,11.3,-0.6,30.22,NNW,346,0.0,2.0,58,0.00,,,0.00,Wunderground v.1.15,2013-01-17 08:55:00,
2013-01-17 02:56:00,11.3,-0.3,30.22,NNW,346,1.0,2.0,59,0.00,,,0.00,Wunderground v.1.15,2013-01-17 08:56:00,
2013-01-17 02:58:00,11.3,-0.3,30.22,NW,312,0.0,2.0,59,0.00,,,0.00,Wunderground v.1.15,2013-01-17 08:58:00,
2013-01-17 02:59:00,11.3,-0.3,30.22,NW,312,0.0,2.0,59,0.00,,,0.00,Wunderground v.1.15,2013-01-17 08:59:00,
2013-01-17 03:01:00,11.2,-0.4,30.23,NW,312,2.0,2.0,59,0.00,,,0.00,Wunderground v.1.15,2013-01-17 09:01:00,
2013-01-17 03:03:00,11.2,-0.4,30.23,NW,312,0.0,3.0,59,0.00,,,0.00,Wunderground v.1.15,2013-01-17 09:03:00,
2013-01-17 03:04:00,11.2,-0.4,30.23,NW,312,0.0,3.0,59,0.00,,,0.00,Wunderground v.1.15,2013-01-17 09:04:00,
2013-01-17 03:06:00,11.1,-0.5,30.24,NW,312,0.0,3.0,59,0.00,,,0.00,Wunderground v.1.15,2013-01-17 09:06:00,
2013-01-17 03:07:00,11.1,-0.1,30.24,NW,312,2.0,3.0,60,0.00,,,0.00,Wunderground v.1.15,2013-01-17 09:07:00,
2013-01-17 03:08:00,11.1,-0.1,30.23,NW,312,2.0,3.0,60,0.00,,,0.00,Wunderground v.1.15,2013-01-17 09:08:00,
2013-01-17 03:09:00,11.1,-0.5,30.23,NW,312,1.0,3.0,59,0.00,,,0.00,Wunderground v.1.15,2013-01-17 09:09:00,
2013-01-17 03:11:00,11.1,-0.5,30.24,NW,312,0.0,1.0,59,0.00,,,0.00,Wunderground v.1.15,2013-01-17 09:11:00,
2013-01-17 03:12:00,11.1,-0.5,30.24,NW,312,0.0,1.0,59,0.00,,,0.00,Wunderground v.1.15,2013-01-17 09:12:00,
2013-01-17 03:13:00,11.1,-0.5,30.23,NW,312,0.0,3.0,59,0.00,,,0.00,Wunderground v.1.15,2013-01-17 09:13:00,
2013-01-17 03:15:00,11.1,-0.8,30.24,NW,305,3.0,3.0,58,0.00,,,0.00,Wunderground v.1.15,2013-01-17 09:15:00,
2013-01-17 03:16:00,11.1,-0.8,30.24,NW,305,1.0,3.0,58,0.00,,,0.00,Wunderground v.1.15,2013-01-17 09:16:00,
2013-01-17 03:17:00,11.1,-0.8,30.24,NW,305,1.0,3.0,58,0.00,,,0.00,Wunderground v.1.15,2013-01-17 09:17:00,
2013-01-17 03:19:00,11.2,-0.4,30.24,NW,305,1.0,3.0,59,0.00,,,0.00,Wunderground v.1.15,2013-01-17 09:19:00,
2013-01-17 03:20:00,11.2,-0.7,30.24,NW,305,0.0,1.0,58,0.00,,,0.00,Wunderground v.1.15,2013-01-17 09:20:00,
2013-01-17 03:21:00,11.2,-0.4,30.24,NW,305,0.0,1.0,59,0.00,,,0.00,Wunderground v.1.15,2013-01-17 09:21:00,
2013-01-17 03:22:00,11.2,-0.4,30.24,NW,305,0.0,1.0,59,0.00,,,0.00,Wunderground v.1.15,2013-01-17 09:22:00,
2013-01-17 03:24:00,11.1,-0.5,30.24,NW,305,0.0,2.0,59,0.00,,,0.00,Wunderground v.1.15,2013-01-17 09:24:00,
2013-01-17 03:25:00,11.2,-0.4,30.24,NW,305,0.0,2.0,59,0.00,,,0.00,Wunderground v.1.15,2013-01-17 09:25:00,
2013-01-17 03:27:00,11.2,0.0,30.24,NW,305,0.0,2.0,60,0.00,,,0.00,Wunderground v.1.15,2013-01-17 09:27:00,
2013-01-17 03:29:00,11.2,0.0,30.24,WNW,303,1.0,3.0,60,0.00,,,0.00,Wunderground v.1.15,2013-01-17 09:29:00,
2013-01-17 03:30:00,11.2,-0.4,30.24,NW,313,3.0,3.0,59,0.00,,,0.00,Wunderground v.1.15,2013-01-17 09:30:00,
2013-01-17 03:32:00,11.2,-0.4,30.24,NW,307,0.0,4.0,59,0.00,,,0.00,Wunderground v.1.15,2013-01-17 09:32:00,
2013-01-17 03:33:00,11.2,-0.4,30.24,NW,307,0.0,4.0,59,0.00,,,0.00,Wunderground v.1.15,2013-01-17 09:33:00,
2013-01-17 03:35:00,11.2,-0.4,30.24,NW,307,0.0,4.0,59,0.00,,,0.00,Wunderground v.1.15,2013-01-17 09:35:00,
2013-01-17 03:36:00,11.1,-0.5,30.24,NW,307,0.0,4.0,59,0.00,,,0.00,Wunderground v.1.15,2013-01-17 09:36:00,
2013-01-17 03:38:00,11.1,-0.5,30.24,NW,307,1.0,4.0,59,0.00,,,0.00,Wunderground v.1.15,2013-01-17 09:38:00,
2013-01-17 03:39:00,11.0,-0.5,30.24,NW,307,1.0,4.0,59,0.00,,,0.00,Wunderground v.1.15,2013-01-17 09:39:00,
2013-01-17 03:40:00,11.1,-0.1,30.24,NW,307,1.0,1.0,60,0.00,,,0.00,Wunderground v.1.15,2013-01-17 09:40:00,
2013-01-17 03:41:00,11.0,-0.5,30.24,NW,307,0.0,1.0,59,0.00,,,0.00,Wunderground v.1.15,2013-01-17 09:41:00,
2013-01-17 03:43:00,10.9,-0.6,30.24,WSW,247,3.0,4.0,59,0.00,,,0.00,Wunderground v.1.15,2013-01-17 09:43:00,
2013-01-17 03:45:00,10.9,-0.6,30.24,WSW,249,1.0,4.0,59,0.00,,,0.00,Wunderground v.1.15,2013-01-17 09:45:00,
2013-01-17 03:46:00,10.8,-0.7,30.24,WSW,249,2.0,4.0,59,0.00,,,0.00,Wunderground v.1.15,2013-01-17 09:46:00,
2013-01-17 03:48:00,10.8,-1.1,30.24,WSW,249,1.0,4.0,58,0.00,,,0.00,Wunderground v.1.15,2013-01-17 09:48:00,
2013-01-17 03:50:00,10.7,-0.8,30.24,WSW,249,0.0,1.0,59,0.00,,,0.00,Wunderground v.1.15,2013-01-17 09:50:00,
2013-01-17 03:51:00,10.7,-0.8,30.24,WSW,249,0.0,1.0,59,0.00,,,0.00,Wunderground v.1.15,2013-01-17 09:51:00,
2013-01-17 03:53:00,10.6,-0.6,30.24,WSW,249,2.0,2.0,60,0.00,,,0.00,Wunderground v.1.15,2013-01-17 09:53:00,
2013-01-17 03:55:00,10.6,-0.6,30.25,WSW,249,0.0,2.0,60,0.00,,,0.00,Wunderground v.1.15,2013-01-17 09:55:00,
2013-01-17 03:56:00,10.5,-0.7,30.25,WSW,249,0.0,2.0,60,0.00,,,0.00,Wunderground v.1.15,2013-01-17 09:56:00,
2013-01-17 03:59:00,10.4,-0.8,30.25,WSW,249,0.0,2.0,60,0.00,,,0.00,Wunderground v.1.15,2013-01-17 09:59:00,
2013-01-17 04:00:00,10.4,-0.4,30.25,WSW,249,0.0,0.0,61,0.00,,,0.00,Wunderground v.1.15,2013-01-17 10:00:00,
2013-01-17 04:01:00,10.3,-0.5,30.25,WSW,249,0.0,1.0,61,0.00,,,0.00,Wunderground v.1.15,2013-01-17 10:01:00,
2013-01-17 04:02:00,10.3,-0.9,30.25,WSW,249,1.0,1.0,60,0.00,,,0.00,Wunderground v.1.15,2013-01-17 10:02:00,
2013-01-17 04:04:00,10.3,-0.9,30.25,WSW,249,0.0,1.0,60,0.00,,,0.00,Wunderground v.1.15,2013-01-17 10:04:00,
2013-01-17 04:06:00,10.2,-0.9,30.26,WSW,249,0.0,2.0,60,0.00,,,0.00,Wunderground v.1.15,2013-01-17 10:06:00,
2013-01-17 04:07:00,10.2,-0.9,30.25,WSW,249,0.0,2.0,60,0.00,,,0.00,Wunderground v.1.15,2013-01-17 10:07:00,
2013-01-17 04:09:00,10.1,-1.0,30.26,WSW,249,0.0,2.0,60,0.00,,,0.00,Wunderground v.1.15,2013-01-17 10:09:00,
2013-01-17 04:11:00,10.1,-1.0,30.25,WSW,249,1.0,2.0,60,0.00,,,0.00,Wunderground v.1.15,2013-01-17 10:11:00,
2013-01-17 04:13:00,10.1,-1.0,30.26,WSW,249,1.0,2.0,60,0.00,,,0.00,Wunderground v.1.15,2013-01-17 10:13:00,
2013-01-17 04:14:00,10.0,-1.1,30.25,WSW,249,2.0,2.0,60,0.00,,,0.00,Wunderground v.1.15,2013-01-17 10:14:00,
2013-01-17 04:16:00,10.0,-1.1,30.25,WSW,249,0.0,3.0,60,0.00,,,0.00,Wunderground v.1.15,2013-01-17 10:16:00,
2013-01-17 04:17:00,10.0,-1.1,30.25,WSW,249,0.0,3.0,60,0.00,,,0.00,Wunderground v.1.15,2013-01-17 10:17:00,
2013-01-17 04:18:00,10.0,-1.1,30.25,WSW,249,0.0,3.0,60,0.00,,,0.00,Wunderground v.1.15,2013-01-17 10:18:00,
2013-01-17 04:19:00,9.9,-1.2,30.25,WSW,249,0.0,3.0,60,0.00,,,0.00,Wunderground v.1.15,2013-01-17 10:19:00,
2013-01-17 04:21:00,9.9,-1.2,30.26,WSW,249,0.0,1.0,60,0.00,,,0.00,Wunderground v.1.15,2013-01-17 10:21:00,
2013-01-17 04:22:00,9.8,-1.3,30.25,WSW,249,0.0,1.0,60,0.00,,,0.00,Wunderground v.1.15,2013-01-17 10:22:00,
2013-01-17 04:23:00,9.8,-1.3,30.25,WSW,249,0.0,1.0,60,0.00,,,0.00,Wunderground v.1.15,2013-01-17 10:23:00,
2013-01-17 04:25:00,9.8,-1.3,30.26,WSW,249,0.0,1.0,60,0.00,,,0.00,Wunderground v.1.15,2013-01-17 10:25:00,
2013-01-17 04:27:00,9.7,-1.4,30.26,WSW,249,2.0,2.0,60,0.00,,,0.00,Wunderground v.1.15,2013-01-17 10:27:00,
2013-01-17 04:28:00,9.7,-1.8,30.26,WSW,249,0.0,2.0,59,0.00,,,0.00,Wunderground v.1.15,2013-01-17 10:28:00,
2013-01-17 04:30:00,9.6,-1.9,30.26,WSW,249,0.0,1.0,59,0.00,,,0.00,Wunderground v.1.15,2013-01-17 10:30:00,
2013-01-17 04:32:00,9.6,-1.9,30.26,WSW,249,0.0,2.0,59,0.00,,,0.00,Wunderground v.1.15,2013-01-17 10:32:00,
2013-01-17 04:33:00,9.6,-1.9,30.26,WSW,249,0.0,2.0,59,0.00,,,0.00,Wunderground v.1.15,2013-01-17 10:33:00,
2013-01-17 04:35:00,9.5,-2.0,30.26,WSW,249,1.0,2.0,59,0.00,,,0.00,Wunderground v.1.15,2013-01-17 10:35:00,
2013-01-17 04:37:00,9.5,-2.0,30.26,WSW,249,0.0,2.0,59,0.00,,,0.00,Wunderground v.1.15,2013-01-17 10:37:00,
2013-01-17 04:38:00,9.5,-2.3,30.26,WSW,249,1.0,2.0,58,0.00,,,0.00,Wunderground v.1.15,2013-01-17 10:38:00,
2013-01-17 04:40:00,9.5,-2.3,30.26,WSW,249,3.0,3.0,58,0.00,,,0.00,Wunderground v.1.15,2013-01-17 10:40:00,
2013-01-17 04:42:00,9.5,-2.0,30.27,WSW,249,0.0,3.0,59,0.00,,,0.00,Wunderground v.1.15,2013-01-17 10:42:00,
2013-01-17 04:43:00,9.5,-2.0,30.27,WSW,249,0.0,3.0,59,0.00,,,0.00,Wunderground v.1.15,2013-01-17 10:43:00,
2013-01-17 04:44:00,9.5,-2.0,30.27,WSW,249,0.0,3.0,59,0.00,,,0.00,Wunderground v.1.15,2013-01-17 10:44:00,
2013-01-17 04:45:00,9.5,-2.0,30.27,WSW,246,2.0,3.0,59,0.00,,,0.00,Wunderground v.1.15,2013-01-17 10:45:00,
2013-01-17 04:47:00,9.5,-2.0,30.27,WSW,246,0.0,3.0,59,0.00,,,0.00,Wunderground v.1.15,2013-01-17 10:47:00,
2013-01-17 04:49:00,9.5,-2.0,30.27,WSW,246,1.0,3.0,59,0.00,,,0.00,Wunderground v.1.15,2013-01-17 10:49:00,
2013-01-17 04:50:00,9.5,-2.0,30.27,WSW,246,0.0,2.0,59,0.00,,,0.00,Wunderground v.1.15,2013-01-17 10:50:00,
2013-01-17 04:52:00,9.5,-2.0,30.27,WSW,246,0.0,2.0,59,0.00,,,0.00,Wunderground v.1.15,2013-01-17 10:52:00,
2013-01-17 04:54:00,9.5,-2.0,30.27,WSW,246,0.0,2.0,59,0.00,,,0.00,Wunderground v.1.15,2013-01-17 10:54:00,
2013-01-17 04:55:00,9.5,-1.6,30.27,WSW,246,0.0,2.0,60,0.00,,,0.00,Wunderground v.1.15,2013-01-17 10:55:00,
2013-01-17 04:57:00,9.5,-1.6,30.27,SW,230,1.0,4.0,60,0.00,,,0.00,Wunderground v.1.15,2013-01-17 10:57:00,
2013-01-17 05:00:00,9.5,-1.3,30.27,SW,231,2.0,2.0,61,0.00,,,0.00,Wunderground v.1.15,2013-01-17 11:00:00,
2013-01-17 05:01:00,9.5,-1.3,30.27,SW,231,1.0,2.0,61,0.00,,,0.00,Wunderground v.1.15,2013-01-17 11:01:00,
2013-01-17 05:03:00,9.5,-1.3,30.28,WNW,294,0.0,3.0,61,0.00,,,0.00,Wunderground v.1.15,2013-01-17 11:03:00,
2013-01-17 05:05:00,9.5,-1.3,30.28,WNW,294,1.0,3.0,61,0.00,,,0.00,Wunderground v.1.15,2013-01-17 11:05:00,
2013-01-17 05:06:00,9.5,-0.9,30.28,West,265,3.0,3.0,62,0.00,,,0.00,Wunderground v.1.15,2013-01-17 11:06:00,
2013-01-17 05:08:00,9.4,-1.0,30.28,West,266,0.0,3.0,62,0.00,,,0.00,Wunderground v.1.15,2013-01-17 11:08:00,
2013-01-17 05:10:00,9.4,-1.0,30.27,WNW,290,2.0,3.0,62,0.00,,,0.00,Wunderground v.1.15,2013-01-17 11:10:00,
2013-01-17 05:11:00,9.4,-1.0,30.27,West,273,2.0,5.0,62,0.00,,,0.00,Wunderground v.1.15,2013-01-17 11:11:00,
2013-01-17 05:13:00,9.4,-1.0,30.28,West,281,3.0,5.0,62,0.00,,,0.00,Wunderground v.1.15,2013-01-17 11:13:00,
2013-01-17 05:15:00,9.4,-1.0,30.28,West,281,3.0,5.0,62,0.00,,,0.00,Wunderground v.1.15,2013-01-17 11:15:00,
2013-01-17 05:16:00,9.4,-1.0,30.28,West,281,0.0,5.0,62,0.00,,,0.00,Wunderground v.1.15,2013-01-17 11:16:00,
2013-01-17 05:17:00,9.4,-1.0,30.28,West,281,0.0,5.0,62,0.00,,,0.00,Wunderground v.1.15,2013-01-17 11:17:00,
2013-01-17 05:18:00,9.5,-0.6,30.28,West,281,0.0,5.0,63,0.00,,,0.00,Wunderground v.1.15,2013-01-17 11:18:00,
2013-01-17 05:20:00,9.4,-0.7,30.28,West,281,0.0,1.0,63,0.00,,,0.00,Wunderground v.1.15,2013-01-17 11:20:00,
2013-01-17 05:21:00,9.4,-0.7,30.28,West,281,2.0,2.0,63,0.00,,,0.00,Wunderground v.1.15,2013-01-17 11:21:00,
2013-01-17 05:23:00,9.4,-0.3,30.28,West,281,0.0,3.0,64,0.00,,,0.00,Wunderground v.1.15,2013-01-17 11:23:00,
2013-01-17 05:24:00,9.5,-0.2,30.28,West,265,2.0,4.0,64,0.00,,,0.00,Wunderground v.1.15,2013-01-17 11:24:00,
2013-01-17 05:25:00,9.5,-0.2,30.28,West,265,2.0,4.0,64,0.00,,,0.00,Wunderground v.1.15,2013-01-17 11:25:00,
2013-01-17 05:27:00,9.5,-0.2,30.28,SSW,205,4.0,4.0,64,0.00,,,0.00,Wunderground v.1.15,2013-01-17 11:27:00,
2013-01-17 05:28:00,9.4,-0.7,30.28,SSW,205,2.0,4.0,63,0.00,,,0.00,Wunderground v.1.15,2013-01-17 11:28:00,
2013-01-17 05:29:00,9.4,-0.7,30.28,SSW,205,1.0,4.0,63,0.00,,,0.00,Wunderground v.1.15,2013-01-17 11:29:00,
2013-01-17 05:30:00,9.4,-0.7,30.28,SSW,205,2.0,2.0,63,0.00,,,0.00,Wunderground v.1.15,2013-01-17 11:30:00,
2013-01-17 05:32:00,9.4,-0.3,30.28,SSW,205,1.0,2.0,64,0.00,,,0.00,Wunderground v.1.15,2013-01-17 11:32:00,
2013-01-17 05:33:00,9.3,-0.4,30.27,SSW,200,1.0,6.0,64,0.00,,,0.00,Wunderground v.1.15,2013-01-17 11:33:00,
2013-01-17 05:35:00,9.4,-0.7,30.28,WNW,284,3.0,6.0,63,0.00,,,0.00,Wunderground v.1.15,2013-01-17 11:35:00,
2013-01-17 05:37:00,9.3,-0.8,30.28,West,277,0.0,6.0,63,0.00,,,0.00,Wunderground v.1.15,2013-01-17 11:37:00,
2013-01-17 05:39:00,9.3,-0.4,30.28,West,277,0.0,6.0,64,0.00,,,0.00,Wunderground v.1.15,2013-01-17 11:39:00,
2013-01-17 05:40:00,9.3,-0.4,30.28,West,278,1.0,2.0,64,0.00,,,0.00,Wunderground v.1.15,2013-01-17 11:40:00,
2013-01-17 05:41:00,9.3,-0.4,30.28,West,278,1.0,2.0,64,0.00,,,0.00,Wunderground v.1.15,2013-01-17 11:41:00,
2013-01-17 05:43:00,9.3,-0.8,30.28,West,278,2.0,4.0,63,0.00,,,0.00,Wunderground v.1.15,2013-01-17 11:43:00,
2013-01-17 05:44:00,9.3,-0.4,30.28,SW,234,4.0,4.0,64,0.00,,,0.00,Wunderground v.1.15,2013-01-17 11:44:00,
2013-01-17 05:45:00,9.3,-0.8,30.28,SW,234,2.0,4.0,63,0.00,,,0.00,Wunderground v.1.15,2013-01-17 11:45:00,
2013-01-17 05:46:00,9.3,-0.8,30.28,SW,234,1.0,4.0,63,0.00,,,0.00,Wunderground v.1.15,2013-01-17 11:46:00,
2013-01-17 05:48:00,9.3,-0.8,30.28,West,270,1.0,4.0,63,0.00,,,0.00,Wunderground v.1.15,2013-01-17 11:48:00,
2013-01-17 05:49:00,9.3,-0.8,30.28,NW,309,1.0,4.0,63,0.00,,,0.00,Wunderground v.1.15,2013-01-17 11:49:00,
2013-01-17 05:50:00,9.3,-0.8,30.28,WNW,288,2.0,3.0,63,0.00,,,0.00,Wunderground v.1.15,2013-01-17 11:50:00,
2013-01-17 05:51:00,9.3,-0.8,30.28,WNW,294,2.0,4.0,63,0.00,,,0.00,Wunderground v.1.15,2013-01-17 11:51:00,
2013-01-17 05:53:00,9.2,-0.9,30.28,WNW,302,2.0,5.0,63,0.00,,,0.00,Wunderground v.1.15,2013-01-17 11:53:00,
2013-01-17 05:54:00,9.2,-1.2,30.28,NW,309,3.0,5.0,62,0.00,,,0.00,Wunderground v.1.15,2013-01-17 11:54:00,
2013-01-17 05:56:00,9.2,-0.9,30.28,NW,304,1.0,5.0,63,0.00,,,0.00,Wunderground v.1.15,2013-01-17 11:56:00,
2013-01-17 05:59:00,9.1,-1.0,30.28,NNW,331,3.0,5.0,63,0.00,,,0.00,Wunderground v.1.15,2013-01-17 11:59:00,
2013-01-17 06:01:00,9.1,-1.0,30.28,NW,311,1.0,3.0,63,0.00,,,0.00,Wunderground v.1.15,2013-01-17 12:01:00,
2013-01-17 06:04:00,8.9,-0.8,30.28,NW,311,0.0,3.0,64,0.00,,,0.00,Wunderground v.1.15,2013-01-17 12:04:00,
2013-01-17 06:05:00,8.9,-1.1,30.28,NW,311,0.0,3.0,63,0.00,,,0.00,Wunderground v.1.15,2013-01-17 12:05:00,
2013-01-17 06:06:00,8.8,-1.2,30.28,NW,311,0.0,3.0,63,0.00,,,0.00,Wunderground v.1.15,2013-01-17 12:06:00,
2013-01-17 06:09:00,8.7,-1.0,30.29,West,270,0.0,3.0,64,0.00,,,0.00,Wunderground v.1.15,2013-01-17 12:09:00,
2013-01-17 06:10:00,8.6,-1.1,30.29,West,270,0.0,1.0,64,0.00,,,0.00,Wunderground v.1.15,2013-01-17 12:10:00,
2013-01-17 06:11:00,8.6,-1.1,30.29,West,270,1.0,2.0,64,0.00,,,0.00,Wunderground v.1.15,2013-01-17 12:11:00,
2013-01-17 06:12:00,8.6,-1.1,30.29,West,270,0.0,2.0,64,0.00,,,0.00,Wunderground v.1.15,2013-01-17 12:12:00,
2013-01-17 06:15:00,8.5,-1.2,30.28,West,270,0.0,2.0,64,0.00,,,0.00,Wunderground v.1.15,2013-01-17 12:15:00,
2013-01-17 06:16:00,8.5,-0.9,30.28,West,270,1.0,2.0,65,0.00,,,0.00,Wunderground v.1.15,2013-01-17 12:16:00,
2013-01-17 06:17:00,8.4,-1.0,30.28,West,270,0.0,2.0,65,0.00,,,0.00,Wunderground v.1.15,2013-01-17 12:17:00,
2013-01-17 06:20:00,8.3,-1.1,30.28,West,270,0.0,0.0,65,0.00,,,0.00,Wunderground v.1.15,2013-01-17 12:20:00,
2013-01-17 06:22:00,8.3,-1.1,30.28,West,270,0.0,0.0,65,0.00,,,0.00,Wunderground v.1.15,2013-01-17 12:22:00,
2013-01-17 06:23:00,8.2,-1.2,30.28,West,270,0.0,0.0,65,0.00,,,0.00,Wunderground v.1.15,2013-01-17 12:23:00,
2013-01-17 06:25:00,8.2,-0.8,30.28,West,270,0.0,0.0,66,0.00,,,0.00,Wunderground v.1.15,2013-01-17 12:25:00,
2013-01-17 06:26:00,8.2,-0.8,30.28,West,270,0.0,0.0,66,0.00,,,0.00,Wunderground v.1.15,2013-01-17 12:26:00,
2013-01-17 06:27:00,8.1,-0.9,30.28,West,270,0.0,0.0,66,0.00,,,0.00,Wunderground v.1.15,2013-01-17 12:27:00,
2013-01-17 06:28:00,8.1,-0.9,30.29,West,270,1.0,2.0,66,0.00,,,0.00,Wunderground v.1.15,2013-01-17 12:28:00,
2013-01-17 06:30:00,7.9,-1.1,30.29,West,270,1.0,1.0,66,0.00,,,0.00,Wunderground v.1.15,2013-01-17 12:30:00,
2013-01-17 06:31:00,7.9,-1.1,30.29,West,270,0.0,1.0,66,0.00,,,0.00,Wunderground v.1.15,2013-01-17 12:31:00,
2013-01-17 06:32:00,7.9,-1.1,30.29,West,270,0.0,1.0,66,0.00,,,0.00,Wunderground v.1.15,2013-01-17 12:32:00,
2013-01-17 06:34:00,7.7,-1.3,30.29,West,270,0.0,1.0,66,0.00,,,0.00,Wunderground v.1.15,2013-01-17 12:34:00,
2013-01-17 06:36:00,7.7,-1.0,30.29,West,270,0.0,1.0,67,0.00,,,0.00,Wunderground v.1.15,2013-01-17 12:36:00,
2013-01-17 06:37:00,7.6,-1.1,30.29,West,270,0.0,1.0,67,0.00,,,0.00,Wunderground v.1.15,2013-01-17 12:37:00,
2013-01-17 06:39:00,7.5,-1.2,30.29,West,270,1.0,2.0,67,0.00,,,0.00,Wunderground v.1.15,2013-01-17 12:39:00,
2013-01-17 06:42:00,7.4,-1.3,30.29,West,270,0.0,0.0,67,0.00,,,0.00,Wunderground v.1.15,2013-01-17 12:42:00,
2013-01-17 06:44:00,7.4,-1.3,30.29,West,270,0.0,0.0,67,0.00,,,0.00,Wunderground v.1.15,2013-01-17 12:44:00,
2013-01-17 06:47:00,7.2,-1.2,30.29,West,270,0.0,1.0,68,0.00,,,0.00,Wunderground v.1.15,2013-01-17 12:47:00,
2013-01-17 06:50:00,7.2,-1.2,30.29,West,270,0.0,1.0,68,0.00,,,0.00,Wunderground v.1.15,2013-01-17 12:50:00,
2013-01-17 06:52:00,7.1,-1.2,30.29,West,270,0.0,1.0,68,0.00,,,0.00,Wunderground v.1.15,2013-01-17 12:52:00,
2013-01-17 06:55:00,7.0,-1.3,30.29,West,270,0.0,3.0,68,0.00,,,0.00,Wunderground v.1.15,2013-01-17 12:55:00,
2013-01-17 06:57:00,7.0,-1.3,30.29,West,270,0.0,3.0,68,0.00,,,0.00,Wunderground v.1.15,2013-01-17 12:57:00,
2013-01-17 06:58:00,6.9,-1.1,30.29,West,270,0.0,3.0,69,0.00,,,0.00,Wunderground v.1.15,2013-01-17 12:58:00,
2013-01-17 07:01:00,6.9,-1.1,30.30,West,270,0.0,0.0,69,0.00,,,0.00,Wunderground v.1.15,2013-01-17 13:01:00,
2013-01-17 07:02:00,6.9,-1.1,30.29,West,270,1.0,2.0,69,0.00,,,0.00,Wunderground v.1.15,2013-01-17 13:02:00,
2013-01-17 07:04:00,6.8,-1.2,30.29,West,270,0.0,3.0,69,0.00,,,0.00,Wunderground v.1.15,2013-01-17 13:04:00,
2013-01-17 07:06:00,6.8,-1.2,30.29,West,270,1.0,3.0,69,0.00,,,0.00,Wunderground v.1.15,2013-01-17 13:06:00,
2013-01-17 07:07:00,6.8,-1.2,30.29,West,270,0.0,3.0,69,0.00,,,0.00,Wunderground v.1.15,2013-01-17 13:07:00,
2013-01-17 07:09:00,6.8,-1.2,30.29,West,270,0.0,3.0,69,0.00,,,0.00,Wunderground v.1.15,2013-01-17 13:09:00,
2013-01-17 07:11:00,6.8,-0.9,30.30,West,270,0.0,0.0,70,0.00,,,0.00,Wunderground v.1.15,2013-01-17 13:11:00,
2013-01-17 07:12:00,6.7,-1.0,30.30,West,270,1.0,2.0,70,0.00,,,0.00,Wunderground v.1.15,2013-01-17 13:12:00,
2013-01-17 07:15:00,6.7,-1.0,30.30,West,270,1.0,3.0,70,0.00,,,0.00,Wunderground v.1.15,2013-01-17 13:15:00,
2013-01-17 07:17:00,6.7,-1.0,30.30,West,270,0.0,3.0,70,0.00,,,0.00,Wunderground v.1.15,2013-01-17 13:17:00,
2013-01-17 07:18:00,6.7,-1.0,30.29,West,270,0.0,3.0,70,0.00,,,0.00,Wunderground v.1.15,2013-01-17 13:18:00,
2013-01-17 07:20:00,6.7,-1.0,30.30,West,270,0.0,1.0,70,0.00,,,0.00,Wunderground v.1.15,2013-01-17 13:20:00,
2013-01-17 07:22:00,6.7,-1.0,30.30,West,270,0.0,1.0,70,0.00,,,0.00,Wunderground v.1.15,2013-01-17 13:22:00,
2013-01-17 07:23:00,6.7,-1.0,30.30,West,270,0.0,1.0,70,0.00,,,0.00,Wunderground v.1.15,2013-01-17 13:23:00,
2013-01-17 07:26:00,6.6,-1.1,30.29,West,270,0.0,1.0,70,0.00,,,0.00,Wunderground v.1.15,2013-01-17 13:26:00,
2013-01-17 07:27:00,6.6,-1.1,30.30,West,270,0.0,1.0,70,0.00,,,0.00,Wunderground v.1.15,2013-01-17 13:27:00,
2013-01-17 07:28:00,6.6,-1.1,30.30,West,270,1.0,1.0,70,0.00,,,0.00,Wunderground v.1.15,2013-01-17 13:28:00,
2013-01-17 07:32:00,6.6,-1.1,30.29,West,270,0.0,0.0,70,0.00,,,0.00,Wunderground v.1.15,2013-01-17 13:32:00,
2013-01-17 07:33:00,6.5,-1.2,30.29,West,270,0.0,0.0,70,0.00,,,0.00,Wunderground v.1.15,2013-01-17 13:33:00,
2013-01-17 07:37:00,6.5,-1.2,30.29,West,270,0.0,1.0,70,0.00,,,0.00,Wunderground v.1.15,2013-01-17 13:37:00,
2013-01-17 07:38:00,6.4,-1.3,30.29,West,270,0.0,2.0,70,0.00,,,0.00,Wunderground v.1.15,2013-01-17 13:38:00,
2013-01-17 07:39:00,6.4,-1.3,30.29,West,270,0.0,2.0,70,0.00,,,0.00,Wunderground v.1.15,2013-01-17 13:39:00,
2013-01-17 07:42:00,6.4,-1.3,30.30,WSW,239,2.0,4.0,70,0.00,,,0.00,Wunderground v.1.15,2013-01-17 13:42:00,
2013-01-17 07:43:00,6.4,-1.3,30.30,WSW,239,0.0,4.0,70,0.00,,,0.00,Wunderground v.1.15,2013-01-17 13:43:00,
2013-01-17 07:44:00,6.4,-1.3,30.30,WSW,239,2.0,4.0,70,0.00,,,0.00,Wunderground v.1.15,2013-01-17 13:44:00,
2013-01-17 07:47:00,6.4,-1.6,30.30,WSW,239,0.0,4.0,69,0.00,,,0.00,Wunderground v.1.15,2013-01-17 13:47:00,
2013-01-17 07:48:00,6.4,-1.6,30.30,WSW,239,0.0,4.0,69,0.00,,,0.00,Wunderground v.1.15,2013-01-17 13:48:00,
2013-01-17 07:49:00,6.4,-1.3,30.30,WSW,239,0.0,4.0,70,0.00,,,0.00,Wunderground v.1.15,2013-01-17 13:49:00,
2013-01-17 07:52:00,6.4,-1.3,30.29,WSW,239,1.0,3.0,70,0.00,,,0.00,Wunderground v.1.15,2013-01-17 13:52:00,
2013-01-17 07:53:00,6.3,-1.4,30.29,WSW,239,1.0,3.0,70,0.00,,,0.00,Wunderground v.1.15,2013-01-17 13:53:00,
2013-01-17 07:54:00,6.3,-1.4,30.29,WSW,239,0.0,3.0,70,0.00,,,0.00,Wunderground v.1.15,2013-01-17 13:54:00,
2013-01-17 07:58:00,6.3,-1.4,30.30,WSW,239,1.0,3.0,70,0.00,,,0.00,Wunderground v.1.15,2013-01-17 13:58:00,
2013-01-17 07:59:00,6.3,-1.1,30.29,WSW,239,1.0,3.0,71,0.00,,,0.00,Wunderground v.1.15,2013-01-17 13:59:00,
2013-01-17 08:03:00,6.3,-1.1,30.30,SW,236,0.0,4.0,71,0.00,,,0.00,Wunderground v.1.15,2013-01-17 14:03:00,
2013-01-17 08:04:00,6.3,-1.1,30.30,SW,236,1.0,4.0,71,0.00,,,0.00,Wunderground v.1.15,2013-01-17 14:04:00,
2013-01-17 08:05:00,6.3,-1.1,30.30,SW,236,2.0,4.0,71,0.00,,,0.00,Wunderground v.1.15,2013-01-17 14:05:00,
2013-01-17 08:08:00,6.3,-1.1,30.30,South,190,3.0,4.0,71,0.00,,,0.00,Wunderground v.1.15,2013-01-17 14:08:00,
2013-01-17 08:09:00,6.3,-1.1,30.30,South,189,3.0,4.0,71,0.00,,,0.00,Wunderground v.1.15,2013-01-17 14:09:00,
2013-01-17 08:10:00,6.3,-1.1,30.30,South,190,1.0,1.0,71,0.00,,,0.00,Wunderground v.1.15,2013-01-17 14:10:00,
2013-01-17 08:13:00,6.3,-1.1,30.31,South,190,2.0,3.0,71,0.00,,,0.00,Wunderground v.1.15,2013-01-17 14:13:00,
2013-01-17 08:14:00,6.3,-1.1,30.31,South,190,2.0,3.0,71,0.00,,,0.00,Wunderground v.1.15,2013-01-17 14:14:00,
2013-01-17 08:15:00,6.3,-1.1,30.31,South,190,1.0,3.0,71,0.00,,,0.00,Wunderground v.1.15,2013-01-17 14:15:00,
2013-01-17 08:19:00,6.4,-1.0,30.31,SW,214,1.0,3.0,71,0.00,,,0.00,Wunderground v.1.15,2013-01-17 14:19:00,
2013-01-17 08:20:00,6.4,-1.0,30.31,SW,214,0.0,1.0,71,0.00,,,0.00,Wunderground v.1.15,2013-01-17 14:20:00,
2013-01-17 08:24:00,6.4,-0.7,30.32,SW,217,0.0,4.0,72,0.00,,,0.00,Wunderground v.1.15,2013-01-17 14:24:00,
2013-01-17 08:46:00,6.5,-0.3,30.33,WSW,246,0.0,1.0,73,0.00,,,0.00,Wunderground v.1.15,2013-01-17 14:46:00,
2013-01-17 08:51:00,6.6,-0.2,30.32,WSW,246,0.0,1.0,73,0.00,,,0.00,Wunderground v.1.15,2013-01-17 14:51:00,
2013-01-17 08:56:00,6.8,0.0,30.33,WSW,246,1.0,1.0,73,0.00,,,0.00,Wunderground v.1.15,2013-01-17 14:56:00,
2013-01-17 09:01:00,7.0,-0.1,30.33,WSW,246,1.0,1.0,72,0.00,,,0.00,Wunderground v.1.15,2013-01-17 15:01:00,
2013-01-17 09:06:00,7.1,-0.3,30.33,WSW,246,0.0,4.0,71,0.00,,,0.00,Wunderground v.1.15,2013-01-17 15:06:00,
2013-01-17 09:07:00,7.1,-0.3,30.33,WSW,246,1.0,4.0,71,0.00,,,0.00,Wunderground v.1.15,2013-01-17 15:07:00,
2013-01-17 09:11:00,7.3,-0.1,30.33,WSW,246,1.0,2.0,71,0.00,,,0.00,Wunderground v.1.15,2013-01-17 15:11:00,
2013-01-17 09:12:00,7.3,-0.1,30.33,WSW,246,0.0,2.0,71,0.00,,,0.00,Wunderground v.1.15,2013-01-17 15:12:00,
2013-01-17 09:17:00,7.5,-0.2,30.34,SW,227,0.0,5.0,70,0.00,,,0.00,Wunderground v.1.15,2013-01-17 15:17:00,
2013-01-17 09:22:00,7.7,-0.4,30.34,South,177,0.0,3.0,69,0.00,,,0.00,Wunderground v.1.15,2013-01-17 15:22:00,
2013-01-17 09:27:00,7.8,0.0,30.34,SSW,192,0.0,4.0,70,0.00,,,0.00,Wunderground v.1.15,2013-01-17 15:27:00,
2013-01-17 09:28:00,7.8,0.0,30.34,NW,321,2.0,4.0,70,0.00,,,0.00,Wunderground v.1.15,2013-01-17 15:28:00,
2013-01-17 09:32:00,7.9,-0.5,30.34,SSW,199,0.0,2.0,68,0.00,,,0.00,Wunderground v.1.15,2013-01-17 15:32:00,
2013-01-17 09:33:00,7.9,-0.5,30.34,SSW,199,0.0,2.0,68,0.00,,,0.00,Wunderground v.1.15,2013-01-17 15:33:00,
2013-01-17 09:37:00,8.0,-0.7,30.34,SSW,194,2.0,3.0,67,0.00,,,0.00,Wunderground v.1.15,2013-01-17 15:37:00,
2013-01-17 09:38:00,7.9,-0.8,30.34,SSW,201,2.0,3.0,67,0.00,,,0.00,Wunderground v.1.15,2013-01-17 15:38:00,
2013-01-17 09:42:00,8.0,-0.7,30.35,SW,219,2.0,4.0,67,0.00,,,0.00,Wunderground v.1.15,2013-01-17 15:42:00,
2013-01-17 09:43:00,8.0,-0.7,30.34,SW,219,1.0,4.0,67,0.00,,,0.00,Wunderground v.1.15,2013-01-17 15:43:00,
2013-01-17 09:47:00,8.1,-0.9,30.34,WSW,250,0.0,5.0,66,0.00,,,0.00,Wunderground v.1.15,2013-01-17 15:47:00,
2013-01-17 09:48:00,8.1,-0.9,30.34,South,171,2.0,5.0,66,0.00,,,0.00,Wunderground v.1.15,2013-01-17 15:48:00,
2013-01-17 09:52:00,8.2,-0.8,30.34,South,169,0.0,2.0,66,0.00,,,0.00,Wunderground v.1.15,2013-01-17 15:52:00,
2013-01-17 09:53:00,8.2,-0.8,30.34,South,169,0.0,2.0,66,0.00,,,0.00,Wunderground v.1.15,2013-01-17 15:53:00,
2013-01-17 09:54:00,8.2,-0.8,30.34,South,169,0.0,2.0,66,0.00,,,0.00,Wunderground v.1.15,2013-01-17 15:54:00,
2013-01-17 09:57:00,8.4,-0.6,30.34,WSW,252,0.0,5.0,66,0.00,,,0.00,Wunderground v.1.15,2013-01-17 15:57:00,
2013-01-17 09:58:00,8.4,-0.6,30.34,WSW,252,0.0,5.0,66,0.00,,,0.00,Wunderground v.1.15,2013-01-17 15:58:00,
2013-01-17 09:59:00,8.4,-0.6,30.35,WSW,252,0.0,5.0,66,0.00,,,0.00,Wunderground v.1.15,2013-01-17 15:59:00,
2013-01-17 10:03:00,8.7,-0.3,30.34,WSW,252,0.0,1.0,66,0.00,,,0.00,Wunderground v.1.15,2013-01-17 16:03:00,
2013-01-17 10:04:00,8.8,-0.3,30.34,WSW,252,0.0,1.0,66,0.00,,,0.00,Wunderground v.1.15,2013-01-17 16:04:00,
2013-01-17 10:08:00,9.0,-0.4,30.35,WSW,252,2.0,3.0,65,0.00,,,0.00,Wunderground v.1.15,2013-01-17 16:08:00,
2013-01-17 10:09:00,9.0,-0.7,30.35,WSW,252,1.0,3.0,64,0.00,,,0.00,Wunderground v.1.15,2013-01-17 16:09:00,
2013-01-17 10:13:00,9.1,-0.6,30.34,WSW,237,2.0,4.0,64,0.00,,,0.00,Wunderground v.1.15,2013-01-17 16:13:00,
2013-01-17 10:14:00,9.1,-0.6,30.34,WNW,300,2.0,4.0,64,0.00,,,0.00,Wunderground v.1.15,2013-01-17 16:14:00,
2013-01-17 10:18:00,9.3,-0.4,30.35,West,276,3.0,4.0,64,0.00,,,0.00,Wunderground v.1.15,2013-01-17 16:18:00,
2013-01-17 10:19:00,9.4,-0.3,30.35,SW,232,3.0,4.0,64,0.00,,,0.00,Wunderground v.1.15,2013-01-17 16:19:00,
2013-01-17 10:23:00,9.7,-0.4,30.34,SSE,168,0.0,2.0,63,0.00,,,0.00,Wunderground v.1.15,2013-01-17 16:23:00,
2013-01-17 10:24:00,9.8,-0.3,30.34,SSE,168,0.0,2.0,63,0.00,,,0.00,Wunderground v.1.15,2013-01-17 16:24:00,
2013-01-17 10:25:00,9.9,-0.2,30.34,SSE,168,0.0,2.0,63,0.00,,,0.00,Wunderground v.1.15,2013-01-17 16:25:00,
2013-01-17 10:28:00,10.2,0.1,30.34,SSE,168,0.0,2.0,63,0.00,,,0.00,Wunderground v.1.15,2013-01-17 16:28:00,
2013-01-17 10:29:00,10.2,0.1,30.34,SSE,168,0.0,2.0,63,0.00,,,0.00,Wunderground v.1.15,2013-01-17 16:29:00,
2013-01-17 10:30:00,10.3,0.5,30.34,SSE,168,1.0,1.0,64,0.00,,,0.00,Wunderground v.1.15,2013-01-17 16:30:00,
2013-01-17 10:34:00,10.5,0.0,30.34,SSW,211,1.0,3.0,62,0.00,,,0.00,Wunderground v.1.15,2013-01-17 16:34:00,
2013-01-17 10:35:00,10.6,0.1,30.34,SE,142,4.0,4.0,62,0.00,,,0.00,Wunderground v.1.15,2013-01-17 16:35:00,
2013-01-17 10:39:00,10.8,-1.1,30.34,SW,216,2.0,4.0,58,0.00,,,0.00,Wunderground v.1.15,2013-01-17 16:39:00,
2013-01-17 10:40:00,10.9,-1.0,30.34,SW,216,0.0,1.0,58,0.00,,,0.00,Wunderground v.1.15,2013-01-17 16:40:00,
2013-01-17 10:44:00,11.1,-0.8,30.34,SW,215,0.0,3.0,58,0.00,,,0.00,Wunderground v.1.15,2013-01-17 16:44:00,
2013-01-17 10:45:00,11.2,-0.7,30.34,SW,215,2.0,3.0,58,0.00,,,0.00,Wunderground v.1.15,2013-01-17 16:45:00,
2013-01-17 10:46:00,11.2,-0.7,30.34,SW,217,2.0,3.0,58,0.00,,,0.00,Wunderground v.1.15,2013-01-17 16:46:00,
2013-01-17 10:49:00,11.3,-1.4,30.34,SW,232,1.0,4.0,56,0.00,,,0.00,Wunderground v.1.15,2013-01-17 16:49:00,
2013-01-17 10:50:00,11.3,-1.4,30.34,SW,232,0.0,1.0,56,0.00,,,0.00,Wunderground v.1.15,2013-01-17 16:50:00,
2013-01-17 10:52:00,11.3,-1.0,30.34,WSW,238,1.0,4.0,57,0.00,,,0.00,Wunderground v.1.15,2013-01-17 16:52:00,
2013-01-17 10:55:00,11.5,-1.2,30.34,SW,229,1.0,4.0,56,0.00,,,0.00,Wunderground v.1.15,2013-01-17 16:55:00,
2013-01-17 10:56:00,11.5,-1.2,30.34,SW,215,2.0,4.0,56,0.00,,,0.00,Wunderground v.1.15,2013-01-17 16:56:00,
2013-01-17 10:57:00,11.5,-1.6,30.34,SW,228,2.0,4.0,55,0.00,,,0.00,Wunderground v.1.15,2013-01-17 16:57:00,
2013-01-17 11:00:00,11.6,-1.5,30.34,WSW,246,0.0,2.0,55,0.00,,,0.00,Wunderground v.1.15,2013-01-17 17:00:00,
2013-01-17 11:01:00,11.7,-1.8,30.34,WSW,246,1.0,2.0,54,0.00,,,0.00,Wunderground v.1.15,2013-01-17 17:01:00,
2013-01-17 11:02:00,11.8,-1.3,30.34,West,262,2.0,4.0,55,0.00,,,0.00,Wunderground v.1.15,2013-01-17 17:02:00,
2013-01-17 11:05:00,12.0,-1.5,30.34,West,262,2.0,4.0,54,0.00,,,0.00,Wunderground v.1.15,2013-01-17 17:05:00,
2013-01-17 11:06:00,12.1,-0.6,30.34,WSW,254,3.0,4.0,56,0.00,,,0.00,Wunderground v.1.15,2013-01-17 17:06:00,
2013-01-17 11:07:00,12.2,-1.3,30.34,WSW,242,3.0,6.0,54,0.00,,,0.00,Wunderground v.1.15,2013-01-17 17:07:00,
2013-01-17 11:11:00,12.2,-2.1,30.34,West,275,3.0,7.0,52,0.00,,,0.00,Wunderground v.1.15,2013-01-17 17:11:00,
2013-01-17 11:13:00,12.2,-1.3,30.34,South,186,1.0,7.0,54,0.00,,,0.00,Wunderground v.1.15,2013-01-17 17:13:00,
2013-01-17 11:16:00,12.4,-0.7,30.34,SSW,207,2.0,7.0,55,0.00,,,0.00,Wunderground v.1.15,2013-01-17 17:16:00,
2013-01-17 11:18:00,12.6,-0.5,30.34,SW,219,2.0,7.0,55,0.00,,,0.00,Wunderground v.1.15,2013-01-17 17:18:00,
2013-01-17 11:21:00,12.7,-0.4,30.34,SSE,167,0.0,4.0,55,0.00,,,0.00,Wunderground v.1.15,2013-01-17 17:21:00,
2013-01-17 11:22:00,12.8,-0.3,30.34,SSE,167,2.0,4.0,55,0.00,,,0.00,Wunderground v.1.15,2013-01-17 17:22:00,
2013-01-17 11:23:00,12.9,-0.3,30.34,South,175,1.0,4.0,55,0.00,,,0.00,Wunderground v.1.15,2013-01-17 17:23:00,
2013-01-17 11:26:00,13.1,-0.1,30.34,WSW,248,5.0,5.0,55,0.00,,,0.00,Wunderground v.1.15,2013-01-17 17:26:00,
2013-01-17 11:28:00,13.0,-0.2,30.34,West,264,4.0,5.0,55,0.00,,,0.00,Wunderground v.1.15,2013-01-17 17:28:00,
2013-01-17 11:32:00,13.1,0.3,30.34,South,189,1.0,3.0,56,0.00,,,0.00,Wunderground v.1.15,2013-01-17 17:32:00,
2013-01-17 11:33:00,13.2,0.8,30.34,WNW,292,3.0,3.0,57,0.00,,,0.00,Wunderground v.1.15,2013-01-17 17:33:00,
2013-01-17 11:34:00,13.3,0.9,30.34,West,277,3.0,3.0,57,0.00,,,0.00,Wunderground v.1.15,2013-01-17 17:34:00,
2013-01-17 11:37:00,13.3,0.9,30.34,WSW,244,1.0,4.0,57,0.00,,,0.00,Wunderground v.1.15,2013-01-17 17:37:00,
2013-01-17 11:39:00,13.4,1.0,30.34,SW,221,2.0,4.0,57,0.00,,,0.00,Wunderground v.1.15,2013-01-17 17:39:00,
2013-01-17 11:40:00,13.4,1.0,30.34,SW,227,2.0,3.0,57,0.00,,,0.00,Wunderground v.1.15,2013-01-17 17:40:00,
2013-01-17 11:42:00,13.4,1.0,30.33,SW,233,2.0,4.0,57,0.00,,,0.00,Wunderground v.1.15,2013-01-17 17:42:00,
2013-01-17 11:44:00,13.4,1.7,30.33,SW,232,3.0,5.0,59,0.00,,,0.00,Wunderground v.1.15,2013-01-17 17:44:00,
2013-01-17 11:45:00,13.5,1.8,30.33,SW,232,0.0,5.0,59,0.00,,,0.00,Wunderground v.1.15,2013-01-17 17:45:00,
2013-01-17 11:47:00,13.5,1.8,30.33,SW,232,0.0,5.0,59,0.00,,,0.00,Wunderground v.1.15,2013-01-17 17:47:00,
2013-01-17 11:49:00,13.6,2.6,30.33,WSW,258,3.0,3.0,61,0.00,,,0.00,Wunderground v.1.15,2013-01-17 17:49:00,
2013-01-17 11:50:00,13.7,2.7,30.33,WSW,240,4.0,4.0,61,0.00,,,0.00,Wunderground v.1.15,2013-01-17 17:50:00,
2013-01-17 11:52:00,13.8,3.2,30.33,SW,228,1.0,5.0,62,0.00,,,0.00,Wunderground v.1.15,2013-01-17 17:52:00,
2013-01-17 11:55:00,13.7,3.4,30.33,West,273,3.0,5.0,63,0.00,,,0.00,Wunderground v.1.15,2013-01-17 17:55:00,
2013-01-17 11:56:00,13.7,3.4,30.33,West,273,1.0,5.0,63,0.00,,,0.00,Wunderground v.1.15,2013-01-17 17:56:00,
2013-01-17 11:58:00,13.6,3.7,30.33,SW,228,3.0,5.0,64,0.00,,,0.00,Wunderground v.1.15,2013-01-17 17:58:00,
2013-01-17 12:00:00,13.6,4.0,30.33,WSW,246,2.0,3.0,65,0.00,,,0.00,Wunderground v.1.15,2013-01-17 18:00:00,
2013-01-17 12:01:00,13.5,4.2,30.33,WSW,246,0.0,3.0,66,0.00,,,0.00,Wunderground v.1.15,2013-01-17 18:01:00,
2013-01-17 12:03:00,13.5,4.6,30.33,WSW,246,4.0,4.0,67,0.00,,,0.00,Wunderground v.1.15,2013-01-17 18:03:00,
2013-01-17 12:05:00,13.5,4.6,30.33,West,269,1.0,6.0,67,0.00,,,0.00,Wunderground v.1.15,2013-01-17 18:05:00,
2013-01-17 12:06:00,13.5,4.9,30.33,WSW,253,1.0,6.0,68,0.00,,,0.00,Wunderground v.1.15,2013-01-17 18:06:00,
2013-01-17 12:07:00,13.5,4.9,30.33,WSW,253,2.0,6.0,68,0.00,,,0.00,Wunderground v.1.15,2013-01-17 18:07:00,
2013-01-17 12:08:00,13.5,5.2,30.33,WSW,240,2.0,6.0,69,0.00,,,0.00,Wunderground v.1.15,2013-01-17 18:08:00,
2013-01-17 12:10:00,13.6,5.3,30.33,SW,233,4.0,5.0,69,0.00,,,0.00,Wunderground v.1.15,2013-01-17 18:10:00,
2013-01-17 12:11:00,13.6,5.3,30.33,SW,233,0.0,5.0,69,0.00,,,0.00,Wunderground v.1.15,2013-01-17 18:11:00,
2013-01-17 12:12:00,13.6,5.3,30.33,SW,233,1.0,5.0,69,0.00,,,0.00,Wunderground v.1.15,2013-01-17 18:12:00,
2013-01-17 12:14:00,13.6,5.3,30.32,SW,227,2.0,5.0,69,0.00,,,0.00,Wunderground v.1.15,2013-01-17 18:14:00,
2013-01-17 12:15:00,13.6,5.3,30.32,WSW,247,0.0,5.0,69,0.00,,,0.00,Wunderground v.1.15,2013-01-17 18:15:00,
2013-01-17 12:16:00,13.7,5.4,30.33,SW,233,3.0,5.0,69,0.00,,,0.00,Wunderground v.1.15,2013-01-17 18:16:00,
2013-01-17 12:17:00,13.8,5.5,30.32,SW,233,0.0,5.0,69,0.00,,,0.00,Wunderground v.1.15,2013-01-17 18:17:00,
2013-01-17 12:19:00,13.8,5.8,30.32,West,267,5.0,5.0,70,0.00,,,0.00,Wunderground v.1.15,2013-01-17 18:19:00,
2013-01-17 12:20:00,14.0,6.0,30.32,West,260,1.0,2.0,70,0.00,,,0.00,Wunderground v.1.15,2013-01-17 18:20:00,
2013-01-17 12:21:00,14.0,6.0,30.32,West,260,3.0,3.0,70,0.00,,,0.00,Wunderground v.1.15,2013-01-17 18:21:00,
2013-01-17 12:23:00,14.1,5.8,30.32,West,278,2.0,4.0,69,0.00,,,0.00,Wunderground v.1.15,2013-01-17 18:23:00,
2013-01-17 12:24:00,14.1,5.8,30.33,West,269,3.0,4.0,69,0.00,,,0.00,Wunderground v.1.15,2013-01-17 18:24:00,
2013-01-17 12:26:00,14.2,5.9,30.32,WSW,254,3.0,4.0,69,0.00,,,0.00,Wunderground v.1.15,2013-01-17 18:26:00,
2013-01-17 12:27:00,14.2,6.2,30.33,SW,233,1.0,4.0,70,0.00,,,0.00,Wunderground v.1.15,2013-01-17 18:27:00,
2013-01-17 12:28:00,14.4,6.1,30.33,West,271,1.0,4.0,69,0.00,,,0.00,Wunderground v.1.15,2013-01-17 18:28:00,
2013-01-17 12:29:00,14.4,6.1,30.33,West,271,2.0,4.0,69,0.00,,,0.00,Wunderground v.1.15,2013-01-17 18:29:00,
2013-01-17 12:31:00,14.6,6.3,30.33,WSW,237,0.0,5.0,69,0.00,,,0.00,Wunderground v.1.15,2013-01-17 18:31:00,
2013-01-17 12:32:00,14.7,6.0,30.33,WSW,238,3.0,5.0,68,0.00,,,0.00,Wunderground v.1.15,2013-01-17 18:32:00,
2013-01-17 12:33:00,14.8,6.1,30.33,West,275,2.0,5.0,68,0.00,,,0.00,Wunderground v.1.15,2013-01-17 18:33:00,
2013-01-17 12:34:00,14.8,6.1,30.33,West,261,0.0,5.0,68,0.00,,,0.00,Wunderground v.1.15,2013-01-17 18:34:00,
2013-01-17 12:36:00,15.0,6.3,30.33,West,277,3.0,5.0,68,0.00,,,0.00,Wunderground v.1.15,2013-01-17 18:36:00,
2013-01-17 12:37:00,15.0,6.0,30.33,South,184,2.0,5.0,67,0.00,,,0.00,Wunderground v.1.15,2013-01-17 18:37:00,
2013-01-17 12:39:00,15.1,5.8,30.33,SW,231,2.0,5.0,66,0.00,,,0.00,Wunderground v.1.15,2013-01-17 18:39:00,
2013-01-17 12:41:00,15.3,6.0,30.33,WSW,238,0.0,3.0,66,0.00,,,0.00,Wunderground v.1.15,2013-01-17 18:41:00,
2013-01-17 12:42:00,15.5,5.8,30.33,SSW,209,1.0,4.0,65,0.00,,,0.00,Wunderground v.1.15,2013-01-17 18:42:00,
2013-01-17 12:44:00,15.6,5.6,30.32,SSW,213,3.0,5.0,64,0.00,,,0.00,Wunderground v.1.15,2013-01-17 18:44:00,
2013-01-17 12:45:00,15.6,5.6,30.32,SW,215,3.0,5.0,64,0.00,,,0.00,Wunderground v.1.15,2013-01-17 18:45:00,
2013-01-17 12:46:00,15.7,5.7,30.32,South,190,3.0,7.0,64,0.00,,,0.00,Wunderground v.1.15,2013-01-17 18:46:00,
2013-01-17 12:47:00,15.8,5.4,30.32,WSW,252,1.0,7.0,63,0.00,,,0.00,Wunderground v.1.15,2013-01-17 18:47:00,
2013-01-17 12:49:00,16.1,5.7,30.32,WSW,251,1.0,4.0,63,0.00,,,0.00,Wunderground v.1.15,2013-01-17 18:49:00,
2013-01-17 12:50:00,16.1,5.7,30.32,WSW,252,1.0,4.0,63,0.00,,,0.00,Wunderground v.1.15,2013-01-17 18:50:00,
2013-01-17 12:51:00,16.1,5.4,30.33,West,263,2.0,4.0,62,0.00,,,0.00,Wunderground v.1.15,2013-01-17 18:51:00,
2013-01-17 12:52:00,16.2,5.5,30.32,WNW,284,1.0,4.0,62,0.00,,,0.00,Wunderground v.1.15,2013-01-17 18:52:00,
2013-01-17 12:55:00,16.4,5.6,30.32,SW,217,4.0,4.0,62,0.00,,,0.00,Wunderground v.1.15,2013-01-17 18:55:00,
2013-01-17 12:57:00,16.6,5.5,30.32,SW,228,2.0,5.0,61,0.00,,,0.00,Wunderground v.1.15,2013-01-17 18:57:00,
2013-01-17 13:00:00,16.7,5.2,30.32,SW,225,5.0,7.0,60,0.00,,,0.00,Wunderground v.1.15,2013-01-17 19:00:00,
2013-01-17 13:02:00,16.8,5.7,30.32,WSW,244,0.0,7.0,61,0.00,,,0.00,Wunderground v.1.15,2013-01-17 19:02:00,
2013-01-17 13:03:00,16.8,5.7,30.32,WSW,244,0.0,7.0,61,0.00,,,0.00,Wunderground v.1.15,2013-01-17 19:03:00,
2013-01-17 13:05:00,17.0,5.9,30.32,SW,220,3.0,7.0,61,0.00,,,0.00,Wunderground v.1.15,2013-01-17 19:05:00,
2013-01-17 13:07:00,17.2,6.0,30.32,WSW,252,2.0,7.0,61,0.00,,,0.00,Wunderground v.1.15,2013-01-17 19:07:00,
2013-01-17 13:08:00,17.2,6.0,30.32,WSW,252,2.0,7.0,61,0.00,,,0.00,Wunderground v.1.15,2013-01-17 19:08:00,
2013-01-17 13:10:00,17.4,6.2,30.32,NW,316,5.0,6.0,61,0.00,,,0.00,Wunderground v.1.15,2013-01-17 19:10:00,
2013-01-17 13:13:00,17.6,6.1,30.32,SW,235,4.0,7.0,60,0.00,,,0.00,Wunderground v.1.15,2013-01-17 19:13:00,
2013-01-17 13:15:00,17.6,5.7,30.32,West,273,4.0,7.0,59,0.00,,,0.00,Wunderground v.1.15,2013-01-17 19:15:00,
2013-01-17 13:16:00,17.7,6.2,30.32,NW,310,6.0,7.0,60,0.00,,,0.00,Wunderground v.1.15,2013-01-17 19:16:00,
2013-01-17 13:18:00,17.6,5.7,30.32,WNW,295,4.0,10.0,59,0.00,,,0.00,Wunderground v.1.15,2013-01-17 19:18:00,
2013-01-17 13:19:00,17.6,5.3,30.32,NW,325,5.0,10.0,58,0.00,,,0.00,Wunderground v.1.15,2013-01-17 19:19:00,
2013-01-17 13:21:00,17.5,5.6,30.32,SW,226,4.0,7.0,59,0.00,,,0.00,Wunderground v.1.15,2013-01-17 19:21:00,
2013-01-17 13:23:00,17.3,5.4,30.32,West,270,2.0,7.0,59,0.00,,,0.00,Wunderground v.1.15,2013-01-17 19:23:00,
2013-01-17 13:24:00,17.3,5.4,30.32,West,271,3.0,7.0,59,0.00,,,0.00,Wunderground v.1.15,2013-01-17 19:24:00,
2013-01-17 13:26:00,17.3,5.4,30.32,NNW,327,5.0,7.0,59,0.00,,,0.00,Wunderground v.1.15,2013-01-17 19:26:00,
2013-01-17 13:28:00,17.4,5.9,30.32,West,264,9.0,9.0,60,0.00,,,0.00,Wunderground v.1.15,2013-01-17 19:28:00,
2013-01-17 13:29:00,17.4,5.9,30.31,WSW,258,3.0,4.0,60,0.00,,,0.00,Wunderground v.1.15,2013-01-17 19:29:00,
2013-01-17 13:31:00,17.4,5.9,30.31,WSW,257,3.0,6.0,60,0.00,,,0.00,Wunderground v.1.15,2013-01-17 19:31:00,
2013-01-17 13:32:00,17.4,5.5,30.31,WNW,285,2.0,6.0,59,0.00,,,0.00,Wunderground v.1.15,2013-01-17 19:32:00,
2013-01-17 13:33:00,17.4,5.9,30.32,SW,222,3.0,7.0,60,0.00,,,0.00,Wunderground v.1.15,2013-01-17 19:33:00,
2013-01-17 13:35:00,17.4,5.9,30.31,SW,235,7.0,7.0,60,0.00,,,0.00,Wunderground v.1.15,2013-01-17 19:35:00,
2013-01-17 13:36:00,17.5,6.0,30.31,SW,227,9.0,12.0,60,0.00,,,0.00,Wunderground v.1.15,2013-01-17 19:36:00,
2013-01-17 13:37:00,17.4,5.5,30.31,West,259,3.0,12.0,59,0.00,,,0.00,Wunderground v.1.15,2013-01-17 19:37:00,
2013-01-17 13:39:00,17.4,5.5,30.31,WSW,250,2.0,12.0,59,0.00,,,0.00,Wunderground v.1.15,2013-01-17 19:39:00,
2013-01-17 13:40:00,17.6,6.4,30.31,West,278,2.0,3.0,61,0.00,,,0.00,Wunderground v.1.15,2013-01-17 19:40:00,
2013-01-17 13:42:00,17.6,6.4,30.31,WSW,243,1.0,6.0,61,0.00,,,0.00,Wunderground v.1.15,2013-01-17 19:42:00,
2013-01-17 13:44:00,17.8,6.2,30.31,WNW,298,2.0,8.0,60,0.00,,,0.00,Wunderground v.1.15,2013-01-17 19:44:00,
2013-01-17 13:46:00,17.9,6.7,30.31,NW,322,3.0,8.0,61,0.00,,,0.00,Wunderground v.1.15,2013-01-17 19:46:00,
2013-01-17 13:47:00,17.9,6.7,30.31,NNW,336,2.0,8.0,61,0.00,,,0.00,Wunderground v.1.15,2013-01-17 19:47:00,
2013-01-17 13:48:00,18.0,6.8,30.31,NW,306,3.0,8.0,61,0.00,,,0.00,Wunderground v.1.15,2013-01-17 19:48:00,
2013-01-17 13:49:00,18.1,6.9,30.31,WNW,294,3.0,8.0,61,0.00,,,0.00,Wunderground v.1.15,2013-01-17 19:49:00,
2013-01-17 13:51:00,18.2,7.0,30.31,WNW,292,2.0,3.0,61,0.00,,,0.00,Wunderground v.1.15,2013-01-17 19:51:00,
2013-01-17 13:52:00,18.3,7.1,30.31,WNW,297,0.0,3.0,61,0.00,,,0.00,Wunderground v.1.15,2013-01-17 19:52:00,
2013-01-17 13:53:00,18.4,7.2,30.31,North,9,3.0,6.0,61,0.00,,,0.00,Wunderground v.1.15,2013-01-17 19:53:00,
2013-01-17 13:54:00,18.4,7.5,30.31,West,265,3.0,6.0,62,0.00,,,0.00,Wunderground v.1.15,2013-01-17 19:54:00,
2013-01-17 13:56:00,18.5,7.3,30.31,North,360,5.0,8.0,61,0.00,,,0.00,Wunderground v.1.15,2013-01-17 19:56:00,
2013-01-17 13:57:00,18.6,7.4,30.31,WSW,250,1.0,8.0,61,0.00,,,0.00,Wunderground v.1.15,2013-01-17 19:57:00,
2013-01-17 13:59:00,18.7,7.5,30.31,WSW,237,3.0,8.0,61,0.00,,,0.00,Wunderground v.1.15,2013-01-17 19:59:00,
2013-01-17 14:01:00,18.8,7.9,30.31,NW,323,0.0,3.0,62,0.00,,,0.00,Wunderground v.1.15,2013-01-17 20:01:00,
2013-01-17 14:02:00,18.9,8.0,30.31,WSW,251,3.0,5.0,62,0.00,,,0.00,Wunderground v.1.15,2013-01-17 20:02:00,
2013-01-17 14:04:00,19.0,7.7,30.31,West,275,3.0,5.0,61,0.00,,,0.00,Wunderground v.1.15,2013-01-17 20:04:00,
2013-01-17 14:05:00,19.0,7.7,30.31,WNW,293,2.0,6.0,61,0.00,,,0.00,Wunderground v.1.15,2013-01-17 20:05:00,
2013-01-17 14:06:00,19.1,7.8,30.31,NW,309,4.0,7.0,61,0.00,,,0.00,Wunderground v.1.15,2013-01-17 20:06:00,
2013-01-17 14:07:00,19.1,8.2,30.31,NW,307,4.0,7.0,62,0.00,,,0.00,Wunderground v.1.15,2013-01-17 20:07:00,
2013-01-17 14:09:00,19.1,8.2,30.31,WSW,258,0.0,7.0,62,0.00,,,0.00,Wunderground v.1.15,2013-01-17 20:09:00,
2013-01-17 14:10:00,19.1,8.2,30.31,WNW,286,3.0,3.0,62,0.00,,,0.00,Wunderground v.1.15,2013-01-17 20:10:00,
2013-01-17 14:11:00,19.1,7.8,30.31,West,272,4.0,5.0,61,0.00,,,0.00,Wunderground v.1.15,2013-01-17 20:11:00,
2013-01-17 14:13:00,19.1,7.5,30.31,NW,309,6.0,7.0,60,0.00,,,0.00,Wunderground v.1.15,2013-01-17 20:13:00,
2013-01-17 14:14:00,19.1,7.8,30.31,WNW,288,5.0,7.0,61,0.00,,,0.00,Wunderground v.1.15,2013-01-17 20:14:00,
2013-01-17 14:15:00,19.1,7.8,30.31,West,280,3.0,7.0,61,0.00,,,0.00,Wunderground v.1.15,2013-01-17 20:15:00,
2013-01-17 14:17:00,19.1,7.8,30.31,WNW,295,1.0,10.0,61,0.00,,,0.00,Wunderground v.1.15,2013-01-17 20:17:00,
2013-01-17 14:18:00,19.0,7.7,30.31,NW,321,4.0,10.0,61,0.00,,,0.00,Wunderground v.1.15,2013-01-17 20:18:00,
2013-01-17 14:20:00,19.1,7.8,30.31,WNW,302,5.0,5.0,61,0.00,,,0.00,Wunderground v.1.15,2013-01-17 20:20:00,
2013-01-17 14:21:00,19.1,7.8,30.31,WSW,244,2.0,5.0,61,0.00,,,0.00,Wunderground v.1.15,2013-01-17 20:21:00,
2013-01-17 14:22:00,19.2,8.3,30.31,SSW,211,6.0,6.0,62,0.00,,,0.00,Wunderground v.1.15,2013-01-17 20:22:00,
2013-01-17 14:24:00,19.2,8.3,30.31,West,276,1.0,7.0,62,0.00,,,0.00,Wunderground v.1.15,2013-01-17 20:24:00,
2013-01-17 14:25:00,19.3,8.4,30.31,SW,236,3.0,7.0,62,0.00,,,0.00,Wunderground v.1.15,2013-01-17 20:25:00,
2013-01-17 14:26:00,19.3,8.4,30.31,West,270,0.0,7.0,62,0.00,,,0.00,Wunderground v.1.15,2013-01-17 20:26:00,
2013-01-17 14:27:00,19.4,8.5,30.31,West,261,4.0,7.0,62,0.00,,,0.00,Wunderground v.1.15,2013-01-17 20:27:00,
2013-01-17 14:29:00,19.6,8.7,30.31,NW,315,2.0,8.0,62,0.00,,,0.00,Wunderground v.1.15,2013-01-17 20:29:00,
2013-01-17 14:30:00,19.6,8.7,30.30,WNW,300,2.0,3.0,62,0.00,,,0.00,Wunderground v.1.15,2013-01-17 20:30:00,
2013-01-17 14:31:00,19.6,8.7,30.30,WNW,300,0.0,3.0,62,0.00,,,0.00,Wunderground v.1.15,2013-01-17 20:31:00,
2013-01-17 14:33:00,19.7,8.8,30.30,West,262,2.0,3.0,62,0.00,,,0.00,Wunderground v.1.15,2013-01-17 20:33:00,
2013-01-17 14:34:00,19.8,8.9,30.30,NW,326,5.0,5.0,62,0.00,,,0.00,Wunderground v.1.15,2013-01-17 20:34:00,
2013-01-17 14:36:00,19.9,8.6,30.30,SW,223,3.0,6.0,61,0.00,,,0.00,Wunderground v.1.15,2013-01-17 20:36:00,
2013-01-17 14:38:00,19.8,8.5,30.30,WNW,294,3.0,9.0,61,0.00,,,0.00,Wunderground v.1.15,2013-01-17 20:38:00,
2013-01-17 14:39:00,19.8,8.5,30.30,SSW,212,1.0,9.0,61,0.00,,,0.00,Wunderground v.1.15,2013-01-17 20:39:00,
2013-01-17 14:41:00,19.9,9.0,30.30,West,272,2.0,4.0,62,0.00,,,0.00,Wunderground v.1.15,2013-01-17 20:41:00,
2013-01-17 14:43:00,19.9,9.0,30.30,WSW,257,1.0,5.0,62,0.00,,,0.00,Wunderground v.1.15,2013-01-17 20:43:00,
2013-01-17 14:44:00,19.9,9.0,30.31,SW,232,4.0,5.0,62,0.00,,,0.00,Wunderground v.1.15,2013-01-17 20:44:00,
2013-01-17 14:46:00,19.9,8.6,30.31,WSW,238,6.0,7.0,61,0.00,,,0.00,Wunderground v.1.15,2013-01-17 20:46:00,
2013-01-17 14:48:00,19.9,8.6,30.31,SW,227,2.0,7.0,61,0.00,,,0.00,Wunderground v.1.15,2013-01-17 20:48:00,
2013-01-17 14:49:00,19.9,8.6,30.31,SW,227,3.0,3.0,61,0.00,,,0.00,Wunderground v.1.15,2013-01-17 20:49:00,
2013-01-17 14:51:00,19.9,8.6,30.31,WSW,252,2.0,4.0,61,0.00,,,0.00,Wunderground v.1.15,2013-01-17 20:51:00,
2013-01-17 14:53:00,20.0,8.7,30.30,West,263,2.0,4.0,61,0.00,,,0.00,Wunderground v.1.15,2013-01-17 20:53:00,
2013-01-17 14:55:00,20.0,9.1,30.30,West,271,0.0,4.0,62,0.00,,,0.00,Wunderground v.1.15,2013-01-17 20:55:00,
2013-01-17 14:56:00,20.0,8.7,30.31,WSW,248,2.0,4.0,61,0.00,,,0.00,Wunderground v.1.15,2013-01-17 20:56:00,
2013-01-17 14:57:00,20.1,8.8,30.30,WSW,244,2.0,4.0,61,0.00,,,0.00,Wunderground v.1.15,2013-01-17 20:57:00,
2013-01-17 14:58:00,20.1,8.8,30.31,WNW,302,4.0,4.0,61,0.00,,,0.00,Wunderground v.1.15,2013-01-17 20:58:00,
2013-01-17 15:00:00,20.1,8.8,30.30,WNW,288,0.0,2.0,61,0.00,,,0.00,Wunderground v.1.15,2013-01-17 21:00:00,
2013-01-17 15:02:00,20.2,8.9,30.31,NW,320,4.0,5.0,61,0.00,,,0.00,Wunderground v.1.15,2013-01-17 21:02:00,
2013-01-17 15:04:00,20.2,8.9,30.31,WSW,257,4.0,5.0,61,0.00,,,0.00,Wunderground v.1.15,2013-01-17 21:04:00,
2013-01-17 15:05:00,20.2,9.2,30.31,West,263,1.0,5.0,62,0.00,,,0.00,Wunderground v.1.15,2013-01-17 21:05:00,
2013-01-17 15:07:00,20.2,9.2,30.31,NW,305,3.0,5.0,62,0.00,,,0.00,Wunderground v.1.15,2013-01-17 21:07:00,
2013-01-17 15:09:00,20.2,9.2,30.31,West,278,3.0,7.0,62,0.00,,,0.00,Wunderground v.1.15,2013-01-17 21:09:00,
2013-01-17 15:10:00,20.2,9.2,30.31,WSW,241,6.0,6.0,62,0.00,,,0.00,Wunderground v.1.15,2013-01-17 21:10:00,
2013-01-17 15:12:00,20.2,9.6,30.31,WSW,239,3.0,6.0,63,0.00,,,0.00,Wunderground v.1.15,2013-01-17 21:12:00,
2013-01-17 15:13:00,20.1,9.5,30.31,SW,235,3.0,6.0,63,0.00,,,0.00,Wunderground v.1.15,2013-01-17 21:13:00,
2013-01-17 15:14:00,20.1,9.5,30.31,West,263,1.0,6.0,63,0.00,,,0.00,Wunderground v.1.15,2013-01-17 21:14:00,
2013-01-17 15:15:00,20.1,9.5,30.31,WSW,246,1.0,6.0,63,0.00,,,0.00,Wunderground v.1.15,2013-01-17 21:15:00,
2013-01-17 15:17:00,20.2,9.6,30.31,SW,223,3.0,6.0,63,0.00,,,0.00,Wunderground v.1.15,2013-01-17 21:17:00,
2013-01-17 15:18:00,20.2,9.6,30.31,SW,228,5.0,6.0,63,0.00,,,0.00,Wunderground v.1.15,2013-01-17 21:18:00,
2013-01-17 15:20:00,20.1,9.2,30.31,NW,304,1.0,3.0,62,0.00,,,0.00,Wunderground v.1.15,2013-01-17 21:20:00,
2013-01-17 15:23:00,20.2,9.6,30.31,NW,309,0.0,4.0,63,0.00,,,0.00,Wunderground v.1.15,2013-01-17 21:23:00,
2013-01-17 15:24:00,20.1,9.5,30.31,NW,304,4.0,5.0,63,0.00,,,0.00,Wunderground v.1.15,2013-01-17 21:24:00,
2013-01-17 15:25:00,20.2,9.2,30.31,SSW,209,0.0,5.0,62,0.00,,,0.00,Wunderground v.1.15,2013-01-17 21:25:00,
2013-01-17 15:28:00,20.1,9.2,30.31,West,271,5.0,8.0,62,0.00,,,0.00,Wunderground v.1.15,2013-01-17 21:28:00,
2013-01-17 15:29:00,20.1,9.2,30.31,WNW,284,2.0,8.0,62,0.00,,,0.00,Wunderground v.1.15,2013-01-17 21:29:00,
2013-01-17 15:30:00,20.1,9.2,30.31,WSW,258,4.0,4.0,62,0.00,,,0.00,Wunderground v.1.15,2013-01-17 21:30:00,
2013-01-17 15:31:00,20.1,9.2,30.31,WSW,258,1.0,4.0,62,0.00,,,0.00,Wunderground v.1.15,2013-01-17 21:31:00,
2013-01-17 15:34:00,20.1,9.5,30.31,WSW,238,4.0,7.0,63,0.00,,,0.00,Wunderground v.1.15,2013-01-17 21:34:00,
2013-01-17 15:35:00,20.1,9.5,30.31,NW,307,2.0,7.0,63,0.00,,,0.00,Wunderground v.1.15,2013-01-17 21:35:00,
2013-01-17 15:36:00,20.1,9.5,30.31,NW,306,2.0,7.0,63,0.00,,,0.00,Wunderground v.1.15,2013-01-17 21:36:00,
2013-01-17 15:39:00,20.1,9.2,30.31,WNW,300,4.0,4.0,62,0.00,,,0.00,Wunderground v.1.15,2013-01-17 21:39:00,
2013-01-17 15:40:00,20.1,9.5,30.31,WNW,301,3.0,4.0,63,0.00,,,0.00,Wunderground v.1.15,2013-01-17 21:40:00,
2013-01-17 15:41:00,20.1,9.5,30.31,WNW,301,1.0,4.0,63,0.00,,,0.00,Wunderground v.1.15,2013-01-17 21:41:00,
2013-01-17 15:44:00,20.0,9.1,30.31,NNW,333,3.0,4.0,62,0.00,,,0.00,Wunderground v.1.15,2013-01-17 21:44:00,
2013-01-17 15:45:00,20.0,9.1,30.31,NNW,332,1.0,4.0,62,0.00,,,0.00,Wunderground v.1.15,2013-01-17 21:45:00,
2013-01-17 15:46:00,20.1,9.2,30.31,WNW,301,4.0,4.0,62,0.00,,,0.00,Wunderground v.1.15,2013-01-17 21:46:00,
2013-01-17 15:50:00,20.0,9.1,30.31,WNW,298,2.0,2.0,62,0.00,,,0.00,Wunderground v.1.15,2013-01-17 21:50:00,
2013-01-17 15:51:00,20.0,9.4,30.31,WNW,286,1.0,4.0,63,0.00,,,0.00,Wunderground v.1.15,2013-01-17 21:51:00,
2013-01-17 15:55:00,19.9,9.0,30.31,West,259,2.0,6.0,62,0.00,,,0.00,Wunderground v.1.15,2013-01-17 21:55:00,
2013-01-17 15:56:00,19.9,9.0,30.31,West,259,1.0,6.0,62,0.00,,,0.00,Wunderground v.1.15,2013-01-17 21:56:00,
2013-01-17 15:57:00,19.9,9.0,30.31,West,259,2.0,6.0,62,0.00,,,0.00,Wunderground v.1.15,2013-01-17 21:57:00,
2013-01-17 16:00:00,19.9,9.3,30.31,NNW,327,3.0,3.0,63,0.00,,,0.00,Wunderground v.1.15,2013-01-17 22:00:00,
2013-01-17 16:01:00,19.8,9.2,30.31,NW,321,5.0,6.0,63,0.00,,,0.00,Wunderground v.1.15,2013-01-17 22:01:00,
2013-01-17 16:02:00,19.8,9.2,30.31,West,277,2.0,6.0,63,0.00,,,0.00,Wunderground v.1.15,2013-01-17 22:02:00,
2013-01-17 16:05:00,19.8,8.9,30.31,SW,219,2.0,6.0,62,0.00,,,0.00,Wunderground v.1.15,2013-01-17 22:05:00,
2013-01-17 16:06:00,19.7,9.1,30.31,WSW,237,1.0,6.0,63,0.00,,,0.00,Wunderground v.1.15,2013-01-17 22:06:00,
2013-01-17 16:08:00,19.7,9.1,30.31,WNW,302,0.0,6.0,63,0.00,,,0.00,Wunderground v.1.15,2013-01-17 22:08:00,